Weather History for Maxwell AFB, AL

Change the Weather History Date:

Saturday, April 6, 2013

  Actual Average Record
Temperature  
Mean Temperature 58 °F -  
Max Temperature 76 °F 74 °F 84 °F (2001)
Min Temperature 39 °F 53 °F 39 °F (2013)
Degree Days  
Heating Degree Days 8    
Growing Degree Days 8 (Base 50)    
Moisture  
Dew Point 42 °F    
Average Humidity 79    
Maximum Humidity 100    
Minimum Humidity 27    
Precipitation  
Precipitation 0.00 in - - ()
Sea Level Pressure  
Sea Level Pressure 30.12 in    
Wind  
Wind Speed 2 mph (South)    
Max Wind Speed 10 mph    
Max Gust Speed -    
Visibility 5 miles    
Events Fog    
Averages and records for this station are not official NWS values.
T = Trace of Precipitation, MM = Missing Value Source: NWS Daily Summary

Daily Weather History Graph

Daily Weather History Graph

Search for Another Location

Airport:

Trip Planner

Search our weather history database for the weather conditions in past years. The results will help you decide how hot, cold, wet, or windy it might be!

Date:

Astronomy

Apr. 06, 2013 Rise Set
Actual Time 6:26 AM CDT 7:09 PM CDT
Civil Twilight 6:02 AM CDT 7:33 PM CDT
Nautical Twilight 5:32 AM CDT 8:03 PM CDT
Astronomical Twilight 5:03 AM CDT 8:33 PM CDT
Moon 3:58 AM CDT (4/6) 3:47 PM CDT (4/6)
Length of Visible Light 13h 31m
Length of Day
12h 42m
Waning Crescent, 15% of the Moon is Illuminated
Apr 6
Waning Crescent
Apr 10
New
Apr 18
First Quarter
Apr 25
Full
May 2
Last Quarter

Hourly Weather History & Observations

Time (CDT) Temp. Dew Point Humidity Pressure Visibility Wind Dir Wind Speed Gust Speed Precip Events Conditions
12:58 AM 45.9 °F 44.1 °F 93% 30.12 in 10.0 mi West 2.3 mph - N/A   Clear
1:59 AM 45.1 °F 44.1 °F 96% 30.10 in 10.0 mi Calm Calm - N/A   Clear
2:58 AM 44.2 °F 43.3 °F 97% 30.10 in 9.0 mi WNW 1.2 mph - N/A   Clear
3:58 AM 42.1 °F 41.4 °F 97% 30.11 in 10.0 mi WSW 1.2 mph - N/A   Clear
4:38 AM 41.0 °F 41.0 °F 100% 30.10 in 1.5 mi Calm Calm - N/A   Clear
4:43 AM 41.0 °F 41.0 °F 100% 30.10 in 0.8 mi South 1.2 mph - N/A   Clear
4:48 AM 41.0 °F 41.0 °F 100% 30.10 in 0.5 mi Calm Calm - N/A Fog Fog
4:53 AM 41.0 °F 39.2 °F 93% 30.10 in 0.8 mi Calm Calm - N/A   Clear
4:58 AM 40.8 °F 40.1 °F 97% 30.12 in 1.5 mi Calm Calm - N/A   Clear
5:03 AM 41.0 °F 41.0 °F 100% 30.11 in 1.2 mi Calm Calm - N/A   Clear
5:08 AM 42.8 °F 41.0 °F 93% 30.11 in 1.0 mi Calm Calm - N/A   Clear
5:13 AM 41.0 °F 41.0 °F 100% 30.11 in 1.8 mi WNW 1.2 mph - N/A   Clear
5:18 AM 41.0 °F 41.0 °F 100% 30.11 in 5.0 mi Calm Calm - N/A   Clear
5:33 AM 41.0 °F 41.0 °F 100% 30.11 in 2.0 mi Calm Calm - N/A   Clear
5:38 AM 41.0 °F 41.0 °F 100% 30.12 in 1.2 mi Calm Calm - N/A   Clear
5:43 AM 41.0 °F 41.0 °F 100% 30.12 in 1.0 mi Calm Calm - N/A   Clear
5:48 AM 41.0 °F 41.0 °F 100% 30.12 in 1.2 mi Calm Calm - N/A   Clear
5:53 AM 41.0 °F 41.0 °F 100% 30.12 in 1.8 mi Calm Calm - N/A   Clear
5:58 AM 40.6 °F 40.1 °F 98% 30.13 in 0.8 mi Calm Calm - N/A   Clear
6:03 AM 41.0 °F 41.0 °F 100% 30.12 in 0.5 mi Calm Calm - N/A Fog Fog
6:08 AM 41.0 °F 41.0 °F 100% 30.12 in 1.0 mi Calm Calm - N/A   Clear
6:13 AM 41.0 °F 39.2 °F 93% 30.13 in 1.8 mi Calm Calm - N/A   Clear
6:18 AM 39.2 °F 39.2 °F 100% 30.13 in 7.0 mi Calm Calm - N/A   Clear
6:33 AM 39.2 °F 39.2 °F 100% 30.14 in 2.5 mi Calm Calm - N/A   Clear
6:43 AM 41.0 °F 41.0 °F 100% 30.14 in 0.8 mi NW 1.2 mph - N/A   Clear
6:48 AM 41.0 °F 41.0 °F 100% 30.14 in 0.5 mi Calm Calm - N/A Fog Fog
6:53 AM 41.0 °F 41.0 °F 100% 30.14 in 0.5 mi Calm Calm - N/A Fog Fog
6:58 AM 41.4 °F 41.2 °F 99% 30.15 in 0.8 mi Calm Calm - N/A   Clear
7:03 AM 42.8 °F 41.0 °F 93% 30.14 in 4.0 mi Calm Calm - N/A   Clear
7:58 AM 47.7 °F 46.6 °F 96% 30.17 in 10.0 mi NNE 2.3 mph - N/A   Clear
8:58 AM 54.0 °F 45.3 °F 73% 30.17 in 10.0 mi NE 3.5 mph - N/A   Clear
9:58 AM 62.1 °F 44.1 °F 52% 30.18 in 10.0 mi East 5.8 mph - N/A   Clear
10:58 AM 66.9 °F 41.4 °F 39% 30.20 in 10.0 mi Variable 4.6 mph - N/A   Clear
11:58 AM 70.0 °F 39.9 °F 33% 30.18 in 10.0 mi SE 4.6 mph - N/A   Clear
12:58 PM 72.5 °F 40.3 °F 31% 30.16 in 10.0 mi SSW 10.4 mph - N/A   Clear
1:59 PM 74.3 °F 41.5 °F 31% 30.13 in 10.0 mi SE 8.1 mph - N/A   Clear
2:58 PM 75.7 °F 39.0 °F 27% 30.11 in 10.0 mi Variable 5.8 mph - N/A   Clear
3:58 PM 76.3 °F 39.9 °F 27% 30.09 in 10.0 mi Variable 2.3 mph - N/A   Clear
4:58 PM 75.2 °F 41.0 °F 29% 30.08 in 10.0 mi South 8.1 mph - N/A   Clear
5:58 PM 75.0 °F 40.6 °F 29% 30.08 in 10.0 mi South 5.8 mph - N/A   Clear
6:58 PM 69.3 °F 43.7 °F 40% 30.08 in 10.0 mi South 4.6 mph - N/A   Clear
7:59 PM 63.1 °F 44.6 °F 51% 30.09 in 10.0 mi South 4.6 mph - N/A   Clear
8:58 PM 61.5 °F 44.8 °F 54% 30.10 in 10.0 mi SSE 4.6 mph - N/A   Clear
9:58 PM 61.2 °F 43.9 °F 53% 30.10 in 10.0 mi SSE 4.6 mph - N/A   Clear
10:58 PM 57.0 °F 45.1 °F 64% 30.12 in 10.0 mi South 4.6 mph - N/A   Clear
11:58 PM 57.6 °F 45.5 °F 64% 30.13 in 10.0 mi South 4.6 mph - N/A   Clear